Columbia, SC

8:38 AM EST on December 05, 2016 (GMT -0500)
Columbia Owens Downtown

Weather History for KCUB - May, 2013

Change the Weather History Date:

Saturday, May 18, 2013

  Actual Average Record
Temperature  
Mean Temperature 75 °F 73 °F  
Max Temperature 81 °F 85 °F 97 °F (2001)
Min Temperature 68 °F 61 °F 54 °F (2006)
Degree Days  
Heating Degree Days 0 0  
Month to date heating degree days 22 11  
Since 1 July heating degree days 2197 2312  
Cooling Degree Days 10 8  
Month to date cooling degree days 74 111  
Year to date cooling degree days 188 210  
Growing Degree Days 24 (Base 50)    
Moisture  
Dew Point 65 °F    
Average Humidity 75    
Maximum Humidity 90    
Minimum Humidity 54    
Precipitation  
Precipitation 0.09 in 0.10 in 0.21 in (2002)
Month to date precipitation 0.75 1.55  
Year to date precipitation 15.55 15.40  
Sea Level Pressure  
Sea Level Pressure 30.11 in    
Wind  
Wind Speed 2 mph (SW)    
Max Wind Speed 12 mph    
Max Gust Speed 15 mph    
Visibility 9 miles    
Events Rain    
T = Trace of Precipitation, MM = Missing Value Source: NWS Daily Summary

Daily Weather History Graph

Daily Weather History Graph

Search for Another Location

Airport or City:

Trip Planner

Search our weather history database for the weather conditions in past years. The results will help you decide how hot, cold, wet, or windy it might be!

Date:

Astronomy

May. 18, 2013 Rise Set
Actual Time 6:20 AM EDT 8:20 PM EDT
Civil Twilight 5:52 AM EDT 8:48 PM EDT
Nautical Twilight 5:18 AM EDT 9:22 PM EDT
Astronomical Twilight 4:42 AM EDT 9:59 PM EDT
Moon 1:41 PM EDT (5/18) 1:52 AM EDT (5/18)
Length of Visible Light 14h 56m
Length of Day
14h 00m
First Quarter, 55% of the Moon is Illuminated
May 18
First Quarter
May 25
Full
May 31
Last Quarter
Jun 8
New
Jun 16
First Quarter

Hourly Weather History & Observations

Time (EDT) Temp. Heat Index Dew Point Humidity Pressure Visibility Wind Dir Wind Speed Gust Speed Precip Events Conditions
12:53 AM 73.9 °F - 62.1 °F 66% 30.11 in 10.0 mi Calm Calm - N/A   Clear
1:53 AM 73.0 °F - 62.1 °F 68% 30.09 in 10.0 mi Calm Calm - N/A   Clear
2:53 AM 71.1 °F - 61.0 °F 70% 30.09 in 10.0 mi Calm Calm - N/A   Clear
3:53 AM 70.0 °F - 60.1 °F 71% 30.09 in 10.0 mi SE 3.5 mph - N/A   Clear
4:53 AM 69.1 °F - 61.0 °F 75% 30.09 in 10.0 mi Calm Calm - N/A   Clear
5:53 AM 68.0 °F - 62.1 °F 81% 30.09 in 10.0 mi Calm Calm - N/A   Clear
6:53 AM 68.0 °F - 63.0 °F 84% 30.12 in 10.0 mi Calm Calm - N/A   Clear
7:53 AM 69.1 °F - 64.0 °F 84% 30.13 in 10.0 mi Calm Calm - N/A   Scattered Clouds
8:53 AM 72.0 °F - 66.0 °F 81% 30.14 in 10.0 mi SSW 5.8 mph - N/A   Scattered Clouds
9:53 AM 75.9 °F - 66.0 °F 71% 30.14 in 10.0 mi SW 6.9 mph - N/A   Scattered Clouds
10:00 AM 77.0 °F - 66.2 °F 69% 30.15 in 10.0 mi WSW 3.5 mph - N/A   Mostly Cloudy
10:21 AM 78.8 °F - 64.4 °F 61% 30.14 in 10.0 mi Variable 6.9 mph - N/A   Scattered Clouds
10:53 AM 79.0 °F - 64.9 °F 62% 30.14 in 10.0 mi Variable 5.8 mph - N/A   Scattered Clouds
11:53 AM 79.0 °F - 64.0 °F 60% 30.14 in 10.0 mi WNW 5.8 mph - N/A   Scattered Clouds
12:53 PM 80.1 °F 81.5 °F 63.0 °F 56% 30.13 in 10.0 mi West 3.5 mph - N/A   Overcast
1:53 PM 80.1 °F 81.7 °F 64.0 °F 58% 30.12 in 10.0 mi Calm Calm - N/A   Mostly Cloudy
3:53 PM 80.1 °F 81.7 °F 64.0 °F 58% 30.08 in 10.0 mi Calm Calm - N/A   Mostly Cloudy
4:53 PM 80.1 °F 81.9 °F 64.9 °F 60% 30.06 in 10.0 mi Calm Calm - N/A   Mostly Cloudy
5:53 PM 80.1 °F 81.9 °F 64.9 °F 60% 30.07 in 10.0 mi Calm Calm - N/A   Mostly Cloudy
6:53 PM 75.0 °F - 64.9 °F 71% 30.09 in 6.0 mi South 11.5 mph - 0.00 in Rain Light Rain
7:05 PM 71.6 °F - 66.2 °F 83% 30.10 in 1.8 mi Variable 4.6 mph - 0.05 in Rain Heavy Rain
7:13 PM 71.6 °F - 66.2 °F 83% 30.10 in 3.0 mi Variable 3.5 mph - 0.06 in Rain Light Rain
7:53 PM 70.0 °F - 66.9 °F 90% 30.11 in 10.0 mi Calm Calm - 0.08 in Rain Light Rain
8:37 PM 69.8 °F - 66.2 °F 88% 30.11 in 10.0 mi Variable 3.5 mph - N/A   Overcast
8:49 PM 69.8 °F - 66.2 °F 88% 30.11 in 10.0 mi Calm Calm - N/A   Overcast
8:53 PM 69.1 °F - 66.9 °F 93% 30.11 in 10.0 mi Calm Calm - N/A   Overcast
9:53 PM 69.1 °F - 66.9 °F 93% 30.12 in 10.0 mi Calm Calm - N/A   Overcast
10:53 PM 69.1 °F - 66.9 °F 93% 30.12 in 9.0 mi Calm Calm - 0.01 in   Overcast
11:53 PM 69.1 °F - 66.9 °F 93% 30.11 in 8.0 mi Calm Calm - N/A   Mostly Cloudy